Flag for U.S.A. Weather past 2 weeks in Pomona, California, U.S.A.

Now
66 °F

Broken clouds.


Feels Like: 66 °F
Forecast: 54 / 65 °F
Wind: 8 mph from West

Location: Chino Airport

Current Time: Jan 30, 2015 at 1:47:07 PM

Latest Report: Jan 30, 2015 at 12:53 PM


Visibility: 10 mi

Pressure: 29.87 "Hg

Humidity: 52%

Dew point: 48 °F

Location of PomonaLocation

Historic Weather in Pomona — Graph

°F

Pomona temperature yesterday

Maximum temperature yesterday: 76 °F (at 11:53 AM)
Minimum temperature yesterday: 54 °F (at 5:53 AM)
Average temperature yesterday: 63 °F

Past Weeks' High & Low Weather Summary

 TemperatureHumidityPressure
High81 °F (Jan 25, 12:53 PM)100% (Jan 20, 12:53 AM)30.27 "Hg (Jan 20, 12:53 AM)
Low38 °F (Jan 16, 5:53 AM)11% (Jan 23, 2:53 PM)29.90 "Hg (Jan 30, 11:53 AM)
Average60 °F55%30.10 "Hg
* Reported Jan 15 11:53 AM — Jan 30 11:53 AM, Pomona, Weather by CustomWeather, © 2014

Note: Actual official high and low records may vary slightly from our data, if they occured in-between our weather recording intervals... More about our weather records

Advertising

Pomona weather history for previous 24 hours

 ConditionsComfort  
Time TempWeatherWind HumidityBarometerVisibility
11:53 AM
Jan 30
65 °FMostly cloudy.No wind56%29.90 "Hg10 mi
10:53 AM65 °FMostly cloudy.No wind54%29.92 "Hg10 mi
9:53 AM63 °FPartly sunny.No wind63%29.93 "Hg10 mi
8:53 AM61 °FBroken clouds.No wind67%29.93 "Hg10 mi
7:53 AM58 °FOvercast.3 mph78%29.93 "Hg10 mi
6:53 AM59 °FLight rain. Overcast.No wind67%29.93 "Hg10 mi
5:53 AM57 °FOvercast.3 mph78%29.93 "Hg9 mi
4:53 AM58 °FMostly cloudy.3 mph75%29.93 "Hg8 mi
3:53 AM58 °FOvercast.3 mph75%29.94 "Hg9 mi
2:53 AM60 °FOvercast.No wind67%29.95 "Hg9 mi
1:53 AM58 °FOvercast.No wind75%29.96 "Hg9 mi
12:53 AM59 °FOvercast.3 mph72%29.97 "Hg10 mi
11:53 PM
Jan 29
61 °FOvercast.7 mph67%30.00 "Hg10 mi
10:53 PM61 °FLight rain. Overcast.No wind67%30.02 "Hg9 mi
9:53 PM60 °FOvercast.5 mph69%30.02 "Hg10 mi
8:53 PM62 °FOvercast.No wind62%30.02 "Hg10 mi
7:53 PM63 °FPassing clouds.3 mph60%30.03 "Hg10 mi
6:53 PM63 °FMostly cloudy.9 mph56%30.03 "Hg10 mi
5:53 PM65 °FOvercast.5 mph52%30.01 "Hg10 mi
4:53 PM68 °FMostly cloudy.No wind44%29.99 "Hg10 mi
3:53 PM70 °FMostly cloudy.7 mph37%29.99 "Hg10 mi
2:53 PM72 °FCloudy.9 mph33%29.98 "Hg10 mi
1:53 PM74 °FMostly cloudy.12 mph27%29.98 "Hg10 mi
Weather by CustomWeather, © 2014

See weather overviewHow to use our weather pages